Cloud_Cover
0 100 22 98 54 86 100 100 100 100 100 100 100 100 100 100 56 100 100 94 99 100 97 100 17 95 78 74 100 44 88 64 100 100 100 100 100 100 100 100 100 100 100
1 55 25 81 100 100 100 100 100 100 100 100 100 100 100 100 100 100 100 100 100 100 100 40 100 25 92 100 49 100 100 100 100 100 100 100 100 100 100 100 100 100 100
4 60 100 100 100 100 100 100 100 100 100 100 100 100 100 100 100 100 100 100 100 100 100 100 100 82 100 90 96 100 100 100 97 91 100 100 100 100 100 100 100 99 95
86 100 100 100 100 100 100 100 100 100 100 100 100 100 100 100 100 100 100 100 100 100 100 100 100 100 100 100 100 100 100 100 100 100 100 100 100 100 45 5 5 3 25
95 100 100 100 100 100 100 100 100 100 100 100 100 100 100 100 100 100 100 100 100 100 100 100 100 100 100 100 92 94 100 85 99 100 93 98 84 6 2 20 3 4 5
100 100 100 100 100 100 100 100 100 100 100 100 100 100 100 100 100 100 100 100 100 99 100 100 100 100 100 100 100 100 100 95 94 44 43 5 3 0 0 0 1 4 1
100 100 100 100 100 100 100 100 100 100 100 100 100 100 100 100 100 100 100 100 100 100 100 100 100 100 99 62 29 36 63 38 13 0 0 0 0 0 0 0 0 0 0
100 100 100 100 100 100 100 100 100 100 100 100 100 100 100 100 100 98 100 100 100 100 100 100 100 100 100 78 46 9 3 0 0 0 0 0 0 0 0 0 0 0 0
100 100 100 100 100 100 100 100 100 100 100 100 100 100 100 100 100 100 100 100 100 100 100 100 44 64 17 5 2 0 0 2 5 5 5 3 1 0 0 0 0 0 0
100 100 100 100 100 100 100 100 100 100 100 100 100 100 100 100 100 100 100 100 100 100 95 7 73 35 5 5 0 0 0 0 0 0 0 0 0 0 0 0 0 0 0
100 100 100 100 100 100 100 100 100 100 100 100 100 100 100 100 100 100 95 89 100 97 23 67 47 5 5 2 0 0 0 0 0 0 0 0 0 0 0 0 0 0 0
100 100 100 100 100 100 100 100 100 100 100 100 100 100 100 100 100 100 100 96 96 73 67 51 5 5 5 2 0 0 0 0 0 0 0 0 0 0 0 0 0 0 0
100 100 100 100 100 100 100 100 100 100 100 100 100 100 100 100 100 100 100 100 100 79 64 7 5 5 5 2 0 0 0 0 0 0 0 0 0 0 0 0 0 0 1
100 100 100 100 100 100 100 100 100 100 100 100 100 100 100 100 100 100 100 100 90 81 18 40 5 5 5 0 0 0 0 0 0 0 0 0 0 0 0 0 0 0 3
100 100 100 100 100 100 100 100 100 100 100 100 100 100 100 100 100 100 99 100 99 43 71 5 5 5 0 0 0 0 0 0 0 0 0 0 0 0 0 0 0 2 2
100 100 100 100 100 100 100 100 100 100 100 100 100 100 100 100 100 100 100 100 52 88 5 5 5 4 0 0 0 0 0 0 0 0 0 0 0 0 0 0 4 5 5
100 100 100 100 100 100 100 100 100 100 100 100 100 100 100 100 100 100 100 83 84 11 5 5 5 2 0 0 0 0 0 0 0 0 0 0 0 0 0 0 5 5 5
100 100 100 100 100 100 100 100 100 100 100 100 100 100 100 100 100 100 98 71 44 5 5 5 5 0 0 0 0 0 0 0 0 0 0 0 1 0 5 5 5 5 5
100 100 100 100 100 100 100 100 100 100 100 100 100 100 100 100 100 100 62 63 37 5 5 5 5 4 0 0 0 0 0 0 0 0 0 0 0 3 0 5 5 4 5
100 100 100 100 100 100 100 100 100 100 100 100 100 100 98 100 100 74 78 73 6 5 5 5 5 3 0 0 0 0 2 3 0 0 0 0 0 0 0 0 2 4 2
100 100 100 100 100 100 100 100 100 100 100 100 100 100 100 100 88 99 66 75 5 5 5 5 5 1 0 0 0 0 5 5 0 0 0 0 0 0 0 0 0 2 5
100 100 100 100 100 100 100 100 100 100 100 100 100 100 100 100 100 71 80 39 5 5 5 5 5 0 0 0 0 0 5 5 4 2 0 0 0 0 0 0 0 0 5
100 100 100 100 100 100 100 100 100 100 100 100 100 100 100 100 82 75 78 6 5 5 5 5 5 0 0 0 0 3 5 5 5 5 3 0 0 0 0 0 0 0 5
100 100 100 100 100 100 100 100 100 100 100 100 100 100 100 100 90 99 49 14 37 5 5 5 5 4 0 0 0 0 0 5 5 5 5 0 0 0 0 0 0 0 1
100 100 100 100 100 100 100 100 100 100 100 100 100 100 100 99 97 95 47 59 46 7 5 5 5 5 1 0 0 0 0 5 5 5 5 0 0 0 0 0 0 0 0
100 100 100 100 100 100 100 100 100 100 100 100 100 100 100 100 100 88 52 76 44 5 5 5 5 5 5 1 0 0 0 5 5 5 5 4 0 0 0 0 0 0 0